Location: Newark
(23.5328°S, 46.7919°W)
Time: 15:28:45
(UTC+00:00)

N. Korean satellite - Pass Details

Date: 07 March 2021
Orbit: 452 x 499 km, 97.2° (Epoch: 17 April)

Event Time Altitude Azimuth Distance (km) Brightness Sun altitude
Rises 08:37:27 0° 343° (NNW) 2,572 10.0 -7.2°
Reaches altitude 10° 08:39:56 10° 325° (NW) 1,702 8.9 -6.7°
Maximum altitude 08:42:39 20° 277° (W) 1,225 8.0 -6.0°
Drops below altitude 10° 08:45:24 10° 229° (SW) 1,722 9.0 -5.4°
Sets 08:47:56 0° 211° (SSW) 2,613 10.0 -4.8°
